OAL514 LICJ-LGSK

Flight info

Callsign OAL514
Flight time 1h 15m
Altitude 33000
Route PAL6S PAL L869 LATAN UL869 KRK UM600 YNN UV651 AGH W58 EVIKO EVIK1C
Aircraft B738/M-SBDFGHIRWY/L

Departure

Time 2026-04-23 02:42
Airport Falcone–Borsellino Airport (LICJ)

Arrival

Time 2026-04-23 03:57
Airport Skiathos Island National Airport (LGSK)
Time Latitude Longitude Altitude Speed Heading
2026-04-23 02:19 38.18575 13.10717 64 ft 0 kts 325°
2026-04-23 02:34 38.18573 13.10719 56 ft 2 kts 325°
2026-04-23 02:34 38.18560 13.10731 55 ft 2 kts 325°
2026-04-23 02:34 38.18546 13.10743 61 ft 2 kts 327°
2026-04-23 02:34 38.18532 13.10753 55 ft 2 kts 335°
2026-04-23 02:35 38.18521 13.10759 56 ft 1 kts 340°
2026-04-23 02:35 38.18520 13.10759 56 ft 0 kts 340°
2026-04-23 02:37 38.18530 13.10734 57 ft 6 kts 277°
2026-04-23 02:37 38.18505 13.10695 61 ft 7 kts 222°
2026-04-23 02:37 38.18470 13.10614 60 ft 10 kts 247°
2026-04-23 02:38 38.18429 13.10525 61 ft 13 kts 214°
2026-04-23 02:38 38.18346 13.10482 58 ft 13 kts 210°
2026-04-23 02:38 38.18297 13.10391 58 ft 12 kts 243°
2026-04-23 02:38 38.18255 13.10369 64 ft 7 kts 170°
2026-04-23 02:39 38.18193 13.10308 62 ft 18 kts 243°
2026-04-23 02:39 38.18132 13.10125 58 ft 33 kts 247°
2026-04-23 02:39 38.18038 13.09847 59 ft 34 kts 244°
2026-04-23 02:39 38.17948 13.09577 61 ft 32 kts 248°
2026-04-23 02:40 38.17870 13.09348 64 ft 25 kts 246°
2026-04-23 02:40 38.17805 13.09154 62 ft 25 kts 248°
2026-04-23 02:40 38.17739 13.08946 61 ft 24 kts 234°
2026-04-23 02:40 38.17651 13.08873 65 ft 7 kts 213°
2026-04-23 02:41 38.17644 13.08867 61 ft 3 kts 213°
2026-04-23 02:41 38.17583 13.08810 60 ft 14 kts 218°
2026-04-23 02:41 38.17500 13.08762 65 ft 13 kts 160°
2026-04-23 02:41 38.17506 13.08871 64 ft 18 kts 67°
2026-04-23 02:42 38.17673 13.09366 64 ft 103 kts 66°
2026-04-23 02:42 38.18054 13.10459 223 ft 159 kts 64°
2026-04-23 02:42 38.18484 13.11749 1283 ft 154 kts 64°
2026-04-23 02:42 38.18931 13.13100 2001 ft 180 kts 64°
2026-04-23 02:43 38.19435 13.14602 2739 ft 192 kts 65°
2026-04-23 02:43 38.19955 13.16182 3596 ft 196 kts 69°
2026-04-23 02:43 38.20232 13.17984 4042 ft 224 kts 81°
2026-04-23 02:43 38.20439 13.20080 4325 ft 254 kts 81°
2026-04-23 02:44 38.20667 13.22398 4911 ft 269 kts 81°
2026-04-23 02:44 38.20902 13.24757 5688 ft 277 kts 81°
2026-04-23 02:44 38.21157 13.27246 6534 ft 284 kts 80°
2026-04-23 02:44 38.21416 13.29733 7321 ft 292 kts 79°
2026-04-23 02:45 38.21688 13.32310 7763 ft 291 kts 78°
2026-04-23 02:45 38.21968 13.34927 8223 ft 303 kts 79°
2026-04-23 02:45 38.22251 13.37563 9069 ft 307 kts 78°
2026-04-23 02:45 38.22548 13.40320 9845 ft 314 kts 78°
2026-04-23 02:46 38.22850 13.43105 10470 ft 325 kts 77°
2026-04-23 02:46 38.23175 13.46070 10666 ft 351 kts 78°
2026-04-23 02:46 38.23523 13.49250 10863 ft 375 kts 78°
2026-04-23 02:46 38.23892 13.52641 11075 ft 397 kts 78°
2026-04-23 02:47 38.24270 13.56174 11565 ft 408 kts 78°
2026-04-23 02:47 38.24651 13.59772 12271 ft 412 kts 78°
2026-04-23 02:47 38.25033 13.63395 13025 ft 415 kts 78°
2026-04-23 02:47 38.25419 13.67054 13728 ft 420 kts 78°
2026-04-23 02:48 38.25809 13.70748 14362 ft 424 kts 78°
2026-04-23 02:48 38.26205 13.74482 15005 ft 427 kts 78°
2026-04-23 02:48 38.26825 13.78166 15639 ft 427 kts 71°
2026-04-23 02:48 38.27628 13.81809 16267 ft 429 kts 69°
2026-04-23 02:49 38.28477 13.85468 16893 ft 432 kts 69°
2026-04-23 02:49 38.29346 13.89153 17504 ft 437 kts 69°
2026-04-23 02:49 38.30231 13.92880 18060 ft 441 kts 69°
2026-04-23 02:49 38.31125 13.96627 18621 ft 445 kts 69°
2026-04-23 02:50 38.32017 14.00358 19131 ft 448 kts 69°
2026-04-23 02:50 38.32927 14.04162 19639 ft 451 kts 69°
2026-04-23 02:50 38.33846 14.07999 20120 ft 455 kts 69°
2026-04-23 02:50 38.34770 14.11859 20610 ft 458 kts 69°
2026-04-23 02:51 38.35703 14.15758 21079 ft 461 kts 69°
2026-04-23 02:51 38.36641 14.19683 21537 ft 465 kts 69°
2026-04-23 02:51 38.37588 14.23639 21989 ft 468 kts 69°
2026-04-23 02:51 38.38544 14.27622 22379 ft 473 kts 69°
2026-04-23 02:52 38.39511 14.31650 22807 ft 476 kts 69°
2026-04-23 02:52 38.40485 14.35697 23257 ft 479 kts 69°
2026-04-23 02:52 38.41464 14.39763 23678 ft 482 kts 69°
2026-04-23 02:52 38.42450 14.43860 24027 ft 484 kts 69°
2026-04-23 02:53 38.43441 14.47976 24390 ft 487 kts 69°
2026-04-23 02:53 38.44436 14.52108 24774 ft 489 kts 69°
2026-04-23 02:53 38.45110 14.54908 25027 ft 490 kts 69°
2026-04-23 02:53 38.46436 14.60424 25502 ft 492 kts 69°
2026-04-23 02:54 38.47114 14.63249 25724 ft 494 kts 69°
2026-04-23 02:54 38.48123 14.67453 26047 ft 496 kts 69°
2026-04-23 02:54 38.49122 14.71617 26362 ft 498 kts 69°
2026-04-23 02:54 38.50151 14.75908 26680 ft 500 kts 69°
2026-04-23 02:55 38.51158 14.80111 26999 ft 503 kts 69°
2026-04-23 02:55 38.52182 14.84384 27314 ft 505 kts 69°
2026-04-23 02:55 38.53210 14.88677 27635 ft 506 kts 69°
2026-04-23 02:55 38.54238 14.92975 28074 ft 505 kts 69°
2026-04-23 02:56 38.55262 14.97262 28513 ft 504 kts 69°
2026-04-23 02:56 38.56333 15.01516 28906 ft 502 kts 66°
2026-04-23 02:56 38.57543 15.05693 29325 ft 501 kts 65°
2026-04-23 02:56 38.58798 15.09840 29793 ft 499 kts 64°
2026-04-23 02:57 38.60056 15.13959 30269 ft 497 kts 64°
2026-04-23 02:57 38.61312 15.18070 30672 ft 495 kts 64°
2026-04-23 02:57 38.62564 15.22166 30962 ft 496 kts 64°
2026-04-23 02:57 38.63821 15.26274 31233 ft 497 kts 64°
2026-04-23 02:58 38.65100 15.30453 31563 ft 497 kts 64°
2026-04-23 02:58 38.66365 15.34579 31824 ft 499 kts 64°
2026-04-23 02:58 38.67634 15.38715 32095 ft 499 kts 64°
2026-04-23 02:58 38.68903 15.42848 32464 ft 498 kts 64°
2026-04-23 02:59 38.70165 15.46962 32871 ft 497 kts 64°
2026-04-23 02:59 38.71429 15.51082 33059 ft 499 kts 64°
2026-04-23 02:59 38.72705 15.55235 33051 ft 502 kts 64°
2026-04-23 03:00 38.75255 15.63535 33071 ft 498 kts 64°
2026-04-23 03:00 38.77780 15.71785 33062 ft 499 kts 64°
2026-04-23 03:01 38.80318 15.80084 33062 ft 501 kts 64°
2026-04-23 03:01 38.82864 15.88411 33048 ft 502 kts 64°
2026-04-23 03:02 38.85416 15.96756 33066 ft 503 kts 64°
2026-04-23 03:02 38.87975 16.05135 33047 ft 505 kts 64°
2026-04-23 03:03 38.90535 16.13536 33065 ft 505 kts 64°
2026-04-23 03:03 38.93089 16.21939 33055 ft 505 kts 64°
2026-04-23 03:04 38.95633 16.30331 33045 ft 504 kts 64°
2026-04-23 03:04 38.98172 16.38724 33060 ft 504 kts 64°
2026-04-23 03:05 39.00698 16.47113 33063 ft 503 kts 64°
2026-04-23 03:05 39.01729 16.51431 33051 ft 509 kts 76°
2026-04-23 03:05 39.02080 16.55975 33079 ft 513 kts 88°
2026-04-23 03:06 39.01559 16.65135 33082 ft 514 kts 92°
2026-04-23 03:06 39.01096 16.74312 33067 ft 514 kts 91°
2026-04-23 03:07 39.00709 16.83491 33066 ft 514 kts 91°
2026-04-23 03:07 39.00316 16.92669 33073 ft 514 kts 91°
2026-04-23 03:08 38.99906 17.01851 33074 ft 516 kts 91°
2026-04-23 03:08 38.99946 17.11040 33057 ft 512 kts 78°
2026-04-23 03:09 39.01402 17.19953 33065 ft 510 kts 73°
2026-04-23 03:09 39.02956 17.28866 33066 ft 511 kts 74°
2026-04-23 03:10 39.04457 17.37888 33060 ft 512 kts 75°
2026-04-23 03:10 39.05913 17.46907 33061 ft 513 kts 75°
2026-04-23 03:11 39.07357 17.55921 33060 ft 514 kts 75°
2026-04-23 03:11 39.08801 17.64946 33054 ft 515 kts 75°
2026-04-23 03:12 39.10240 17.73976 33053 ft 515 kts 75°
2026-04-23 03:12 39.11675 17.83037 33055 ft 517 kts 75°
2026-04-23 03:13 39.13092 17.92115 33041 ft 517 kts 75°
2026-04-23 03:13 39.14500 18.01210 33040 ft 517 kts 75°
2026-04-23 03:14 39.15900 18.10294 33038 ft 517 kts 75°
2026-04-23 03:14 39.17296 18.19392 33044 ft 517 kts 75°
2026-04-23 03:15 39.18684 18.28484 33028 ft 517 kts 75°
2026-04-23 03:15 39.20063 18.37571 33035 ft 516 kts 75°
2026-04-23 03:16 39.21435 18.46658 33020 ft 516 kts 76°
2026-04-23 03:16 39.23477 18.60283 33024 ft 516 kts 76°
2026-04-23 03:17 39.24829 18.69366 33021 ft 516 kts 76°
2026-04-23 03:17 39.26176 18.78461 33028 ft 516 kts 76°
2026-04-23 03:18 39.27516 18.87566 33012 ft 517 kts 76°
2026-04-23 03:18 39.28844 18.96633 33012 ft 518 kts 76°
2026-04-23 03:19 39.30173 19.05775 33000 ft 518 kts 76°
2026-04-23 03:19 39.31504 19.14991 33009 ft 520 kts 76°
2026-04-23 03:20 39.32822 19.24178 32997 ft 520 kts 76°
2026-04-23 03:20 39.34135 19.33377 32968 ft 521 kts 76°
2026-04-23 03:21 39.35442 19.42587 32966 ft 522 kts 76°
2026-04-23 03:21 39.36744 19.51819 32956 ft 522 kts 77°
2026-04-23 03:22 39.38040 19.61053 32955 ft 522 kts 77°
2026-04-23 03:22 39.39315 19.70302 32942 ft 523 kts 77°
2026-04-23 03:23 39.40576 19.79552 32942 ft 522 kts 77°
2026-04-23 03:23 39.41858 19.88806 32941 ft 523 kts 77°
2026-04-23 03:24 39.43125 19.98012 32946 ft 523 kts 77°
2026-04-23 03:24 39.44507 20.07246 32931 ft 521 kts 71°
2026-04-23 03:25 39.47216 20.15881 32956 ft 513 kts 60°
2026-04-23 03:25 39.50236 20.24259 32947 ft 514 kts 60°
2026-04-23 03:26 39.53160 20.32668 32975 ft 516 kts 61°
2026-04-23 03:26 39.56092 20.41234 32956 ft 517 kts 61°
2026-04-23 03:27 39.59006 20.49753 32975 ft 518 kts 61°
2026-04-23 03:27 39.61909 20.58261 32963 ft 519 kts 61°
2026-04-23 03:28 39.64826 20.66840 32985 ft 520 kts 61°
2026-04-23 03:28 39.67726 20.75440 33015 ft 522 kts 64°
2026-04-23 03:29 39.68716 20.80001 32986 ft 530 kts 79°
2026-04-23 03:29 39.68951 20.84792 32996 ft 533 kts 92°
2026-04-23 03:29 39.67744 20.92666 33014 ft 532 kts 109°
2026-04-23 03:30 39.65455 21.01804 32966 ft 532 kts 110°
2026-04-23 03:30 39.63184 21.10952 32982 ft 534 kts 109°
2026-04-23 03:31 39.60973 21.20139 32987 ft 533 kts 109°
2026-04-23 03:31 39.58789 21.29308 33023 ft 532 kts 109°
2026-04-23 03:32 39.56600 21.38452 33032 ft 532 kts 109°
2026-04-23 03:32 39.54396 21.47605 32839 ft 535 kts 109°
2026-04-23 03:33 39.53280 21.52218 32147 ft 537 kts 109°
2026-04-23 03:33 39.52163 21.56828 31484 ft 536 kts 109°
2026-04-23 03:33 39.51044 21.61438 30772 ft 537 kts 109°
2026-04-23 03:33 39.49921 21.66057 30026 ft 538 kts 109°
2026-04-23 03:34 39.48788 21.70684 29133 ft 539 kts 110°
2026-04-23 03:34 39.47380 21.75167 28286 ft 536 kts 117°
2026-04-23 03:34 39.45781 21.79509 27423 ft 535 kts 119°
2026-04-23 03:34 39.44121 21.83820 26558 ft 534 kts 120°
2026-04-23 03:35 39.42448 21.88113 25704 ft 534 kts 120°
2026-04-23 03:35 39.40780 21.92385 25083 ft 529 kts 120°
2026-04-23 03:35 39.39135 21.96604 24448 ft 524 kts 120°
2026-04-23 03:35 39.37504 22.00796 23814 ft 519 kts 120°
2026-04-23 03:36 39.35895 22.04947 23119 ft 515 kts 120°
2026-04-23 03:36 39.34299 22.09069 22430 ft 510 kts 120°
2026-04-23 03:36 39.32723 22.13139 21825 ft 504 kts 120°
2026-04-23 03:36 39.31163 22.17160 21220 ft 498 kts 120°
2026-04-23 03:37 39.29622 22.21125 20650 ft 492 kts 120°
2026-04-23 03:37 39.28093 22.25048 20105 ft 486 kts 120°
2026-04-23 03:37 39.26582 22.28913 19614 ft 479 kts 120°
2026-04-23 03:37 39.25091 22.32718 19209 ft 471 kts 120°
2026-04-23 03:38 39.23625 22.36452 18948 ft 462 kts 120°
2026-04-23 03:38 39.22160 22.40172 18611 ft 466 kts 120°
2026-04-23 03:38 39.20690 22.43889 17891 ft 467 kts 120°
2026-04-23 03:38 39.19217 22.47603 17209 ft 464 kts 120°
2026-04-23 03:39 39.17756 22.51289 16590 ft 459 kts 120°
2026-04-23 03:39 39.16312 22.54923 16148 ft 451 kts 120°
2026-04-23 03:39 39.14908 22.58440 16064 ft 433 kts 120°
2026-04-23 03:39 39.13615 22.61876 15949 ft 420 kts 114°
2026-04-23 03:40 39.12653 22.65333 15840 ft 399 kts 110°
2026-04-23 03:40 39.11810 22.68647 15691 ft 380 kts 109°
2026-04-23 03:40 39.11028 22.71816 15575 ft 362 kts 106°
2026-04-23 03:40 39.10732 22.74949 15443 ft 345 kts 84°
2026-04-23 03:41 39.11107 22.77912 15364 ft 327 kts 76°
2026-04-23 03:41 39.11508 22.80734 15279 ft 315 kts 77°
2026-04-23 03:41 39.11872 22.83459 15139 ft 304 kts 78°
2026-04-23 03:41 39.12213 22.86120 14840 ft 299 kts 78°
2026-04-23 03:42 39.12545 22.88785 14502 ft 296 kts 78°
2026-04-23 03:42 39.12862 22.91391 14168 ft 293 kts 78°
2026-04-23 03:42 39.13171 22.93969 13877 ft 289 kts 78°
2026-04-23 03:42 39.13472 22.96510 13525 ft 285 kts 79°
2026-04-23 03:43 39.13767 22.99021 13147 ft 283 kts 79°
2026-04-23 03:43 39.14058 23.01513 12791 ft 280 kts 79°
2026-04-23 03:43 39.14347 23.03986 12499 ft 278 kts 79°
2026-04-23 03:43 39.14631 23.06437 12263 ft 275 kts 79°
2026-04-23 03:44 39.14913 23.08867 11888 ft 274 kts 79°
2026-04-23 03:44 39.15192 23.11282 11552 ft 271 kts 79°
2026-04-23 03:44 39.15470 23.13694 11141 ft 273 kts 79°
2026-04-23 03:44 39.15746 23.16097 10826 ft 269 kts 79°
2026-04-23 03:45 39.16017 23.18459 10519 ft 265 kts 79°
2026-04-23 03:45 39.16285 23.20798 10190 ft 263 kts 79°
2026-04-23 03:45 39.16551 23.23122 9875 ft 260 kts 79°
2026-04-23 03:45 39.16812 23.25417 9546 ft 258 kts 79°
2026-04-23 03:46 39.17071 23.27685 9332 ft 254 kts 79°
2026-04-23 03:46 39.17323 23.29903 9095 ft 248 kts 79°
2026-04-23 03:46 39.17572 23.32096 8728 ft 247 kts 79°
2026-04-23 03:46 39.17822 23.34288 8491 ft 245 kts 79°
2026-04-23 03:47 39.18064 23.36428 8244 ft 240 kts 79°
2026-04-23 03:47 39.18304 23.38551 7862 ft 239 kts 79°
2026-04-23 03:47 39.18541 23.40656 7486 ft 236 kts 79°
2026-04-23 03:47 39.18775 23.42740 7107 ft 233 kts 79°
2026-04-23 03:48 39.18912 23.44818 6738 ft 233 kts 88°
2026-04-23 03:48 39.18810 23.46879 6423 ft 229 kts 91°
2026-04-23 03:48 39.18689 23.48911 6111 ft 225 kts 91°
2026-04-23 03:48 39.18580 23.50917 5848 ft 223 kts 90°
2026-04-23 03:49 39.18480 23.52917 5620 ft 224 kts 90°
2026-04-23 03:49 39.18376 23.54921 5383 ft 225 kts 93°
2026-04-23 03:49 39.17835 23.56825 5132 ft 232 kts 123°
2026-04-23 03:49 39.16671 23.58199 4891 ft 223 kts 150°
2026-04-23 03:50 39.15246 23.58767 4674 ft 208 kts 174°
2026-04-23 03:50 39.13852 23.58656 4464 ft 196 kts 195°
2026-04-23 03:50 39.12617 23.58027 4260 ft 188 kts 207°
2026-04-23 03:50 39.11463 23.57287 4064 ft 188 kts 208°
2026-04-23 03:51 39.10293 23.56522 3882 ft 190 kts 208°
2026-04-23 03:51 39.09110 23.55746 3776 ft 191 kts 207°
2026-04-23 03:51 39.07925 23.54970 3656 ft 190 kts 207°
2026-04-23 03:51 39.06761 23.54210 3559 ft 186 kts 207°
2026-04-23 03:52 39.05625 23.53470 3490 ft 185 kts 207°
2026-04-23 03:52 39.04459 23.52709 3423 ft 189 kts 207°
2026-04-23 03:52 39.03288 23.51945 3324 ft 188 kts 208°
2026-04-23 03:52 39.02312 23.50880 3189 ft 185 kts 241°
2026-04-23 03:53 39.01991 23.49332 3019 ft 179 kts 277°
2026-04-23 03:53 39.02378 23.47864 2833 ft 172 kts 309°
2026-04-23 03:53 39.03275 23.46928 2701 ft 166 kts 344°
2026-04-23 03:53 39.04414 23.46812 2549 ft 167 kts
2026-04-23 03:54 39.05581 23.46950 2321 ft 168 kts
2026-04-23 03:54 39.06741 23.47169 2089 ft 168 kts 11°
2026-04-23 03:54 39.07876 23.47473 1871 ft 166 kts 11°
2026-04-23 03:54 39.09029 23.47699 1636 ft 168 kts
2026-04-23 03:55 39.10163 23.47835 1512 ft 154 kts
2026-04-23 03:55 39.11122 23.47932 1494 ft 135 kts
2026-04-23 03:55 39.12087 23.48069 1330 ft 143 kts
2026-04-23 03:55 39.13046 23.48325 1060 ft 138 kts 13°
2026-04-23 03:56 39.13953 23.48671 850 ft 135 kts 19°
2026-04-23 03:56 39.14835 23.49096 566 ft 136 kts 18°
2026-04-23 03:56 39.15734 23.49468 348 ft 136 kts 18°
2026-04-23 03:56 39.16634 23.49878 133 ft 138 kts 18°
2026-04-23 03:57 39.17522 23.50268 34 ft 125 kts 22°
2026-04-23 03:57 39.18140 23.50546 48 ft 64 kts 18°
2026-04-23 03:57 39.18375 23.50671 59 ft 15 kts 38°
2026-04-23 03:57 39.18417 23.50663 61 ft 5 kts 271°
2026-04-23 03:58 39.18390 23.50650 58 ft 12 kts 182°
2026-04-23 03:58 39.18247 23.50596 47 ft 25 kts 198°
2026-04-23 03:58 39.18082 23.50521 46 ft 20 kts 199°
2026-04-23 03:58 39.17963 23.50466 43 ft 16 kts 211°
2026-04-23 03:59 39.17909 23.50348 41 ft 15 kts 237°
2026-04-23 03:59 39.17820 23.50287 40 ft 15 kts 197°
2026-04-23 03:59 39.17725 23.50249 38 ft 15 kts 197°
2026-04-23 03:59 39.17712 23.50245 38 ft 2 kts 189°
2026-04-23 04:00 39.17657 23.50231 34 ft 11 kts 198°
2026-04-23 04:00 39.17628 23.50202 34 ft 5 kts 271°
2026-04-23 04:00 39.17641 23.50164 32 ft 2 kts 292°
2026-04-23 04:00 39.17643 23.50156 33 ft 0 kts 292°